Regional Weather Roundup
Issued by NWS

Home | Current Version | Previous Version | Graphics & Text | Print | Product List | Glossary On
Versions: 1 2 3 4 5 6 7 8 9 10 11 12 13 14 15 16 17 18 19 20 21 22 23 24 25 26 27 28 29 30 31 32 33 34 35 36 37 38 39 40 41 42 43 44 45 46 47 48 49 50
000
ASUS43 KLOT 011108
RWRIL

ILLINOIS REGIONAL WEATHER ROUNDUP
NATIONAL WEATHER SERVICE CHICAGO/ROMEOVILLE IL
600 AM CDT WED JUL 01 2015

NOTE: "FAIR" INDICATES FEW OR NO CLOUDS BELOW 12,000 FEET WITH NO
SIGNIFICANT WEATHER AND/OR OBSTRUCTIONS TO VISIBILITY.

* THESE STATIONS ARE NOT UNDER NWS QUALITY CONTROL. THEY ALSO MAY NOT
  REPORT WEATHER SUCH AS PRECIPITATION OR FOG.

ILZ001-002-007-009-015-016-024-011200-
NORTHWEST ILLINOIS

CITY           SKY/WX    TMP DP  RH WIND       PRES   REMARKS
MOLINE         PTCLDY    64  58  80 NE5       29.91R
STERLING*      CLOUDY    59  55  88 E7        29.94R
SAVANNA*       CLOUDY    61  58  90 E6        29.94R FOG
$$

ILZ003-004-008-010-011-017-018-011200-
NORTH CENTRAL ILLINOIS

CITY           SKY/WX    TMP DP  RH WIND       PRES   REMARKS
ROCKFORD       CLOUDY    59  54  83 E5        29.96R
FREEPORT*      CLOUDY    57  55  95 E5        29.96R
ROCHELLE*      PTCLDY    56  54  94 E5        29.95R
DE KALB*       CLOUDY    55  52  90 NE6       29.95R
PERU*          MOCLDY    59  57  93 E3        29.94R
$$

ILZ005-006-012>014-019>023-011200-
NORTHEAST ILLINOIS

CITY           SKY/WX    TMP DP  RH WIND       PRES   REMARKS
CHICAGO-OHARE  MOCLDY    56  51  84 NE6       29.94S
CHICAGO-MIDWAY CLOUDY    59  53  80 N10       29.94R
AURORA         CLOUDY    58  52  80 NE6       29.94S
LANSING*       CLOUDY    57  51  79 NE7       29.94R
JOLIET*        CLOUDY    60  55  86 NE7       29.94R
WAUKEGAN       CLOUDY    53  51  93 CALM      29.95
DUPAGE AIRPORT CLOUDY    57  51  80 NE5       29.93S
KANKAKEE*      PTCLDY    57  56  95 CALM      29.93R
WHEELING       MOCLDY    55  50  83 CALM      29.96R
MORRIS*        CLEAR     56  55  94 CALM      29.90R
ROMEOVILLE*    CLOUDY    58  53  82 E8        29.94R
NORTHERLY ISL    N/A     56  52  86 N8          N/A
$$

LMZ740>746-011200-
SOUTHERN LAKE MICHIGAN

STATION/POSITION SKY/WX   TEMP    WIND        PRES    VSBY  WAVE
                          AIR SEA DIR/SP/G                  HT/PER
                          (F)     (DEG/KT/KT) (MB)    (MI)  (FT/S)
HARRISON CRIB              56      10/  9/ 10   N/A
BURNHAM HARBOR             56      20/  7/ 11   N/A
CALUMET HARBOR             57     360/  8/ 11   N/A
BURNS HARBOR               58     360/ 11/ 14 1014.2R
MICHIGAN CITY              58     330/ 11/ 13   N/A
MICHIGAN CITY 6N           58 65   20/ 14/ 16   N/A           4/ 5
ST. JOSEPH                 59 63                N/A           5/ 6
$$

ILZ025>027-034>036-040-047-049-050-058-095>099-011200-
WEST-CENTRAL ILLINOIS

CITY           SKY/WX    TMP DP  RH WIND       PRES   REMARKS
QUINCY         CLOUDY    69  66  90 W6        29.90R FOG
GALESBURG*     PTCLDY    64  62  93 N5        29.91R
MACOMB*        MOCLDY    65  65  98 CALM      29.92R
JACKSONVILLE*  CLOUDY    71  69  94 SW3       29.90R FOG
PITTSFIELD*    CLOUDY    69  65  86 W5        29.92S
$$

ILZ028>032-037-038-041>044-048-051>054-059>061-011200-
CENTRAL ILLINOIS

CITY           SKY/WX    TMP DP  RH WIND       PRES   REMARKS
PONTIAC        MOCLDY    60  59  96 E5        29.94R
BLOOMINGTON    CLOUDY    63  63 100 NE6       29.94R FOG
DECATUR        PTCLDY    64  62  93 CALM      29.91R FOG
PEORIA         CLOUDY    69  64  84 E5        29.91R
LACON*         CLOUDY    61  58  89 E3        29.92R
LINCOLN*       PTCLDY    66  64  91 CALM      29.91R
SPRINGFIELD    PTCLDY    68  65  90 CALM      29.90R FOG
TAYLORVILLE    FOG       64  64 100 CALM      29.92R VSB 1
$$

ILZ033-039-045-046-055>057-062-063-011200-
EAST-CENTRAL ILLINOIS

CITY           SKY/WX    TMP DP  RH WIND       PRES   REMARKS
CHAMPAIGN      MOCLDY    64  62  93 E5        29.91R FOG
DANVILLE*      CLOUDY    60  59  97 NE3       29.89R FOG
RANTOUL*       CLOUDY    64  62  93 E5        29.92R FOG
MATTOON          N/A     64  62  93 CALM      29.89R FOG
PARIS*         MOCLDY    63  63  99 E3        29.91R FOG
$$

ILZ079-100>102-011200-
SOUTHWEST ILLINOIS

CITY           SKY/WX    TMP DP  RH WIND       PRES   REMARKS
ALTON          LGT RAIN  71  71 100 W9        29.92R
BELLEVILLE     LGT RAIN  72  72 100 W10       29.91R
CAHOKIA*       LGT RAIN  73  68  84 W3        29.91R
SPARTA*        CLOUDY    72  69  92 W6        29.92R
$$

ILZ064>066-069>071-074>076-080>082-084>086-088>090-092>094-011200-
SOUTH-CENTRAL ILLINOIS

CITY           SKY/WX    TMP DP  RH WIND       PRES   REMARKS
CARBONDALE     CLOUDY    73  69  87 W6        29.90R
CAIRO*         DRIZZLE   76  72  88 W3        29.91R
EFFINGHAM*     MOCLDY    66  64  91 S3        29.92R FOG
MARION         DRIZZLE   73  70  88 W3        29.91R
MT. VERNON     CLOUDY    70  64  83 SW3       29.91R
CENTRALIA*     CLOUDY    69  67  93 W3        29.91R FOG
SALEM*         CLOUDY    70  68  92 CALM      29.90R FOG
METROPOLIS*    CLOUDY    74  74  99 CALM      29.92R
$$

ILZ067-068-072-073-078-083-087-091-011200-
SOUTHEAST ILLINOIS

CITY           SKY/WX    TMP DP  RH WIND       PRES   REMARKS
LAWRENCEVILLE  PTCLDY    66  66 100 CALM      29.90R FOG
FLORA*         PTCLDY    67  67  99 N3        29.90R FOG
FAIRFIELD*     CLOUDY    68  68  99 CALM      29.89R FOG
HARRISBURG*    CLOUDY    70  70 100 CALM      29.90S
ROBINSON*      PTCLDY    64  63  97 CALM      29.90R FOG
CARMI*         MOCLDY    69  64  83 CALM      29.89R HAZE
$$

ABBREVIATIONS USED IN REMARKS
   TC - TEMPERATURE IN CELSIUS
  WCI - WIND CHILL INDEX
   HX - HEAT INDEX
  VSB - VISIBILITY
$$



USA.gov is the U.S. government's official web portal to all federal, state and local government web resources and services.